CAPE
0 0 0 0 0 0 0 0 0 2 50 34 38 160 54 34 104 78 170 138 716 1142 1592 1566 1554 1444 1316 1090 806 782 970 1206 1170 848 752 838 956 850 886 1016 900 612 460 654 846 852 428 344 364
0 0 0 0 0 0 0 0 0 6 6 6 44 110 122 108 400 316 274 572 792 1158 1434 1258 1556 1478 1370 1090 948 750 950 1214 1238 1112 818 678 760 760 608 970 906 470 398 384 380 372 230 192 106
0 0 0 0 0 0 0 0 0 0 30 0 70 142 50 562 378 324 372 784 1060 1202 1246 1148 1518 1420 1346 1030 918 782 840 1190 1212 984 826 634 604 646 848 924 932 436 298 186 108 98 108 42 0
0 0 0 0 0 0 0 0 0 2 128 22 70 160 494 594 380 312 772 1108 1024 982 1018 1466 1478 1426 1372 1232 1092 848 754 1148 1308 1046 838 620 448 528 608 672 730 476 204 140 102 62 0 0 0
0 0 0 0 0 0 0 0 0 12 94 0 30 572 526 578 424 520 796 876 734 890 1056 1084 1390 1356 1308 1218 1028 998 776 1036 1360 1178 768 578 490 492 600 574 352 144 46 8 0 0 0 0 0
0 0 0 0 0 0 0 0 0 0 4 0 584 722 276 392 456 400 542 696 784 768 936 1018 1322 1270 1190 1270 1158 1070 848 860 1226 1184 980 796 722 654 594 534 344 190 136 70 8 64 22 2 20
0 0 0 0 0 0 0 0 0 6 0 2 706 782 368 368 476 404 462 698 826 782 950 992 980 970 1172 1232 1160 1102 956 908 982 1068 972 870 872 814 592 374 276 220 156 126 120 104 96 54 34
0 0 0 0 0 0 0 0 0 0 4 464 500 362 390 394 270 456 476 644 628 782 1020 896 844 840 882 982 1276 1146 1028 990 966 1004 914 820 858 678 496 168 110 150 106 88 64 78 104 64 48
0 0 0 0 0 0 0 0 6 440 588 1120 364 230 376 428 306 246 276 454 396 536 626 1002 876 800 766 828 846 1054 784 762 874 858 918 568 210 198 106 172 144 400 414 382 338 298 272 232 254
0 0 0 0 0 0 0 0 4 58 1074 998 742 536 348 356 322 264 94 194 356 366 440 942 710 500 476 782 794 644 466 468 482 518 478 138 34 0 18 84 358 672 752 812 678 580 568 496 2
0 0 0 0 0 0 0 0 0 0 836 908 698 508 436 246 92 88 12 10 118 244 332 642 428 472 518 690 686 476 396 378 278 248 210 54 4 0 0 0 0 6 166 212 204 30 8 0 0
0 0 0 0 0 0 0 0 0 0 0 282 716 416 450 322 108 174 114 0 4 110 314 492 688 582 516 538 492 358 292 160 88 100 82 16 0 0 24 50 72 46 64 20 38 0 6 10 12
0 0 0 0 0 0 0 0 0 0 0 0 94 400 550 386 228 172 66 10 4 30 100 188 248 292 370 364 378 248 142 30 0 8 14 0 0 138 504 478 544 234 162 106 104 186 272 438 578
0 0 0 0 0 0 0 0 0 0 0 0 652 624 656 550 526 296 132 80 38 6 10 22 50 62 136 102 160 82 28 0 0 0 0 0 44 554 774 712 458 570 1006 1038 1182 914 712 962 966
0 0 0 0 0 0 0 0 0 0 0 0 554 664 714 488 402 382 286 210 172 210 218 0 0 0 2 0 0 0 0 0 0 56 114 212 354 856 984 626 524 1488 1350 1154 1154 978 1008 1052 1102
0 0 0 0 0 0 0 0 0 0 0 0 546 682 582 550 638 618 628 608 324 246 278 176 0 6 32 8 24 38 228 318 574 726 690 596 634 908 956 1064 1612 1498 1494 1110 1056 1090 1142 1076 670
0 0 0 0 0 0 0 0 0 0 0 0 116 682 720 560 744 706 538 668 594 376 348 268 160 94 90 72 454 154 572 644 736 746 858 1008 870 1274 1292 1624 1626 1648 1582 1436 1184 1010 698 224 0
0 0 0 0 0 0 0 0 0 0 0 0 550 712 636 434 560 856 812 684 676 526 388 300 440 912 618 496 560 662 802 940 1026 920 916 1130 1310 1442 1684 1684 1788 1714 1350 918 340 94 0 0 0
0 0 0 0 0 0 0 0 0 0 0 0 678 736 684 686 558 1030 876 786 702 598 408 316 402 806 362 554 796 650 778 1080 1016 1306 1330 1528 1692 1820 1798 1850 1916 1486 972 150 0 0 0 0 0
0 0 0 0 0 0 0 0 0 0 0 82 722 628 694 554 500 686 956 782 606 546 408 336 242 206 340 318 384 688 1134 1124 1354 1496 1524 1642 1794 1718 2118 2090 1636 1164 82 0 0 0 0 0 0
0 0 0 0 0 0 0 0 0 2 332 4 508 368 500 582 624 558 566 248 294 302 126 32 24 72 6 300 10 160 510 802 934 1270 1342 1508 1382 1652 1990 1694 340 26 0 0 0 0 0 0 0
0 0 0 0 0 0 0 0 0 0 350 316 208 430 374 482 440 254 176 230 164 108 50 54 48 210 140 74 26 88 354 528 546 822 734 766 840 938 1614 236 0 0 0 0 0 0 0 0 0
0 0 0 0 0 0 0 0 0 0 102 298 304 292 490 516 322 354 362 288 266 242 236 192 88 100 102 72 44 48 324 316 418 390 592 570 524 656 162 0 0 0 0 0 0 0 0 0 0
0 0 0 0 0 0 0 0 0 0 0 110 348 310 434 550 488 306 280 250 300 168 196 228 154 98 6 0 62 142 162 198 132 190 358 366 158 96 62 0 0 0 0 0 0 0 0 0 0
0 0 0 0 0 0 0 0 0 0 0 60 470 474 328 466 388 318 314 368 368 232 168 96 38 28 186 8 106 180 180 138 126 198 246 180 46 36 28 0 0 0 0 0 0 0 0 0 0
0 0 0 0 0 0 0 0 0 0 0 2 504 752 756 584 510 534 628 414 320 232 180 92 36 42 192 76 140 72 46 44 92 132 108 32 6 70 0 0 0 0 0 0 0 0 0 0 0
0 0 0 0 0 0 0 0 0 0 0 26 510 730 946 888 888 876 526 242 188 144 150 110 90 150 88 100 16 4 6 128 92 148 24 6 58 10 0 0 0 0 0 0 0 0 0 0 0
0 0 0 0 0 0 0 0 0 0 0 54 122 324 380 612 622 608 380 276 372 216 238 122 134 178 108 48 30 132 216 202 108 44 22 74 18 0 0 0 0 0 0 0 0 0 0 0 0
0 0 0 0 0 0 0 0 0 10 0 0 22 38 46 174 386 440 382 424 552 566 762 130 126 78 38 108 232 302 164 46 34 84 126 40 0 0 0 0 0 0 0 0 0 0 0 0 0
0 0 0 0 0 0 0 0 0 214 160 0 0 0 6 62 194 216 550 752 970 1234 950 502 186 58 222 316 224 98 6 0 40 142 88 0 0 0 0 0 0 0 0 0 0 0 0 0 0
CIN
-0 -0 -0 -0 -0 -0 -0 -0 -0 -54 -142 -161 -45 -49 -125 -263 -166 -165 -442 -512 -467 -340 -175 -99 -77 -85 -119 -150 -191 -204 -166 -116 -131 -197 -225 -204 -167 -168 -147 -104 -113 -151 -163 -95 -60 -60 -125 -129 -127
-0 -0 -0 -0 -0 -0 -0 -0 -0 -3 -90 -178 -110 -27 -38 -180 -407 -428 -610 -507 -409 -357 -244 -193 -98 -106 -139 -171 -191 -231 -178 -121 -113 -121 -175 -212 -192 -178 -196 -112 -115 -186 -186 -163 -152 -144 -181 -186 -213
-0 -0 -0 -0 -0 -0 -0 -0 -0 -0 -193 -73 -195 -182 -123 -296 -476 -430 -613 -453 -347 -331 -317 -275 -157 -146 -153 -198 -211 -256 -231 -140 -139 -175 -184 -205 -210 -196 -143 -122 -109 -195 -202 -218 -242 -245 -251 -306 -0
-0 -0 -0 -0 -0 -0 -0 -0 -0 -7 -64 -224 -106 -65 -192 -290 -358 -402 -460 -351 -320 -316 -342 -241 -228 -199 -172 -191 -189 -237 -265 -169 -124 -171 -216 -246 -282 -245 -205 -174 -142 -176 -232 -233 -252 -285 -8 -0 -0
-0 -0 -0 -0 -0 -0 -0 -0 -0 -9 -51 -0 -124 -137 -271 -242 -287 -496 -383 -335 -341 -262 -247 -257 -189 -182 -165 -179 -221 -217 -259 -190 -117 -141 -236 -276 -283 -267 -224 -218 -257 -286 -305 -332 -161 -0 -0 -0 -0
-0 -0 -0 -0 -0 -0 -0 -0 -0 -0 -19 -0 -151 -234 -262 -248 -229 -360 -450 -387 -327 -309 -252 -264 -199 -211 -205 -162 -176 -182 -214 -204 -113 -113 -154 -201 -221 -238 -243 -243 -281 -305 -287 -299 -348 -286 -348 -122 -383
-0 -0 -0 -0 -0 -0 -0 -0 -0 -17 -0 -137 -157 -241 -345 -217 -159 -157 -406 -359 -270 -249 -236 -239 -239 -239 -192 -168 -171 -180 -199 -204 -175 -152 -164 -188 -189 -197 -241 -290 -296 -300 -294 -306 -292 -291 -292 -301 -325
-0 -0 -0 -0 -0 -0 -0 -1 -0 -0 -5 -151 -73 -256 -249 -209 -151 -498 -392 -285 -292 -228 -162 -192 -231 -249 -247 -235 -172 -204 -213 -220 -218 -187 -189 -197 -183 -220 -246 -339 -350 -307 -302 -311 -325 -325 -303 -301 -326
-0 -0 -0 -0 -0 -0 -0 -0 -38 -104 -110 -141 -111 -167 -222 -168 -182 -179 -510 -341 -342 -296 -253 -141 -183 -237 -269 -252 -255 -211 -274 -275 -245 -237 -194 -276 -389 -386 -427 -382 -358 -243 -219 -227 -236 -268 -271 -270 -258
-0 -0 -0 -0 -0 -0 -0 -0 -10 -6 -71 -140 -174 -245 -336 -233 -211 -184 -688 -554 -455 -412 -373 -210 -222 -275 -333 -282 -292 -333 -382 -371 -353 -331 -353 -499 -588 -0 -560 -458 -315 -213 -177 -172 -197 -216 -199 -203 -54
-0 -0 -0 -0 -0 -0 -0 -0 -0 -0 -73 -85 -56 -234 -305 -225 -294 -188 -511 -726 -686 -533 -471 -356 -416 -369 -350 -296 -300 -370 -394 -440 -488 -485 -487 -573 -346 -0 -0 -0 -0 -65 -365 -343 -324 -100 -58 -0 -0
-0 -0 -0 -0 -0 -0 -0 -0 -0 -0 -0 -105 -122 -173 -244 -251 -299 -240 -162 -45 -753 -693 -556 -461 -372 -375 -369 -355 -339 -396 -448 -537 -603 -584 -596 -663 -0 -0 -339 -286 -259 -272 -241 -379 -360 -50 -19 -256 -12
-0 -0 -0 -0 -0 -0 -0 -0 -0 -0 -0 -0 -245 -154 -205 -217 -232 -114 -135 -511 -527 -808 -702 -612 -537 -520 -473 -474 -431 -465 -524 -684 -0 -450 -428 -0 -0 -300 -180 -174 -180 -199 -231 -238 -221 -153 -118 -95 -84
-0 -0 -0 -0 -0 -0 -0 -0 -0 -0 -0 -0 -161 -159 -168 -139 -130 -118 -178 -220 -194 -181 -718 -677 -600 -592 -568 -640 -574 -600 -674 -0 -0 -0 -0 -0 -231 -167 -137 -143 -168 -144 -86 -74 -42 -40 -84 -49 -35
-0 -0 -0 -0 -0 -0 -0 -0 -0 -0 -0 -0 -161 -131 -106 -81 -150 -182 -157 -184 -142 -144 -117 -0 -0 -0 -573 -0 -56 -0 -0 -0 -0 -324 -328 -317 -239 -118 -93 -118 -157 -44 -31 -39 -20 -20 -16 -19 -11
-0 -0 -0 -0 -0 -0 -0 -0 -0 -0 -0 -0 -180 -88 -38 -81 -215 -256 -159 -156 -147 -124 -75 -75 -0 -352 -539 -536 -148 -501 -302 -233 -148 -121 -123 -134 -140 -104 -87 -106 -23 -10 -7 -17 -16 -5 -2 -3 -29
-0 -0 -0 -0 -0 -0 -0 -0 -0 -0 -0 -0 -213 -146 -38 -40 -211 -209 -224 -135 -126 -138 -101 -68 -288 -347 -374 -316 -114 -329 -85 -101 -59 -51 -49 -33 -66 -41 -70 -34 -12 -4 -7 -4 -4 -8 -21 -54 -0
-0 -0 -0 -0 -0 -0 -0 -0 -0 -0 -0 -0 -151 -168 -170 -147 -236 -171 -209 -123 -95 -113 -115 -86 -129 -34 -65 -94 -9 -35 -42 -23 -8 -18 -6 -3 -52 -41 -17 -11 -5 -4 -10 -16 -57 -80 -0 -0 -0
-0 -0 -0 -0 -0 -0 -0 -0 -0 -0 -0 -0 -163 -149 -143 -83 -189 -111 -114 -173 -52 -47 -65 -126 -151 -13 -41 -1 -28 -84 -39 -22 -77 -117 -121 -71 -41 -20 -15 -5 -0 -3 -14 -92 -68 -0 -0 -0 -0
-0 -0 -0 -0 -0 -0 -0 -0 -0 -0 -0 -309 -165 -122 -118 -109 -47 -110 -74 -45 -50 -171 -39 -49 -111 -45 -13 -43 -9 -53 -52 -59 -21 -55 -52 -36 -23 -16 -5 -1 -1 -0 -134 -0 -0 -0 -0 -0 -0
-0 -0 -0 -0 -0 -0 -0 -0 -0 -61 -345 -65 -208 -188 -132 -86 -88 -58 -40 -103 -88 -51 -46 -19 -260 -342 -94 -46 -21 -1 -2 -46 -54 -33 -23 -16 -13 -9 -0 -0 -77 -94 -0 -0 -0 -0 -0 -0 -0
-0 -0 -0 -0 -0 -0 -0 -0 -0 -0 -295 -355 -353 -236 -104 -38 -31 -382 -494 -481 -432 -448 -22 -23 -77 -228 -65 -43 -219 -43 -0 -10 -43 -36 -31 -34 -30 -16 -0 -55 -0 -0 -0 -0 -0 -0 -0 -0 -0
-0 -0 -0 -0 -0 -0 -0 -0 -0 -0 -351 -392 -445 -346 -311 -353 -369 -196 -59 -42 -130 -367 -244 -205 -158 -94 -49 -22 -140 -103 -14 -7 -4 -14 -15 -25 -25 -5 -19 -0 -0 -0 -0 -0 -0 -0 -0 -0 -0
-0 -0 -0 -0 -0 -0 -0 -0 -0 -0 -0 -604 -416 -401 -339 -346 -329 -270 -231 -64 -59 -183 -311 -210 -147 -89 -353 -0 -72 -35 -27 -1 -4 -11 -36 -37 -23 -22 -38 -0 -0 -0 -0 -0 -0 -0 -0 -0 -0
-0 -0 -0 -0 -0 -0 -0 -0 -0 -0 -0 -499 -426 -302 -293 -288 -327 -54 -61 -79 -82 -100 -186 -151 -137 -223 -200 -300 -95 -37 -23 -10 -10 -6 -14 -9 -23 -27 -43 -0 -0 -0 -0 -0 -0 -0 -0 -0 -0
-0 -0 -0 -0 -0 -0 -0 -0 -0 -0 -0 -45 -322 -195 -87 -60 -97 -121 -130 -177 -162 -129 -143 -158 -153 -333 -218 -315 -139 -78 -12 -1 -21 -9 -14 -15 -14 -30 -0 -0 -0 -0 -0 -0 -0 -0 -0 -0 -0
-0 -0 -0 -0 -0 -0 -0 -0 -0 -0 -0 -458 -263 -168 -113 -103 -126 -146 -139 -172 -298 -177 -83 -390 -354 -148 -157 -139 -259 -136 -169 -3 -21 -3 -26 -38 -28 -40 -0 -0 -0 -0 -0 -0 -0 -0 -0 -0 -0
-0 -0 -0 -0 -0 -0 -0 -0 -0 -0 -0 -367 -386 -269 -256 -159 -161 -155 -184 -106 -254 -168 -296 -296 -225 -39 -24 -114 -94 -26 -14 -5 -15 -24 -17 -11 -20 -0 -0 -0 -0 -0 -0 -0 -0 -0 -0 -0 -0
-0 -0 -0 -0 -0 -0 -0 -0 -0 -199 -0 -0 -425 -409 -409 -281 -195 -223 -107 -133 -181 -98 -18 -221 -201 -109 -110 -76 -32 -6 -9 -32 -24 -3 -6 -18 -0 -0 -0 -0 -0 -0 -0 -0 -0 -0 -0 -0 -0
-0 -0 -0 -0 -0 -0 -0 -0 -0 -266 -387 -0 -0 -0 -444 -311 -200 -211 -92 -116 -32 -0 -2 -22 -62 -106 -41 -29 -36 -46 -81 -2 -19 -0 -7 -0 -0 -0 -0 -0 -0 -0 -0 -0 -0 -0 -0 -0 -0
Wind_Speed
nan nan nan nan nan nan nan nan nan nan nan nan nan 12 nan nan 4 nan 5 7 9 9 2 8 6 8 12 9 6 6 9 10 11 12 13 15 15 16 16 16 18 20 20 20 20 19 20 21 21
nan nan nan nan nan nan nan nan nan nan nan nan nan 18 16 10 14 8 13 6 6 9 6 7 7 10 14 10 8 7 8 10 10 11 12 14 15 15 17 17 19 20 20 19 20 22 22 23 25
nan nan nan nan nan nan nan nan nan nan nan nan nan 20 nan 22 24 11 14 10 7 11 9 7 9 12 14 11 9 10 10 10 13 14 14 13 14 15 16 17 18 19 18 19 21 nan 22 nan nan
nan nan nan nan nan nan nan nan nan nan 32 nan nan 30 23 32 24 27 17 12 11 8 11 13 15 14 14 13 9 9 10 11 12 15 17 15 17 17 17 17 17 17 18 20 18 nan nan nan nan
nan nan nan nan nan nan nan nan nan nan nan nan nan 33 32 36 39 27 22 19 13 10 13 14 15 15 12 11 10 10 9 9 11 13 16 18 18 17 18 19 18 18 nan nan nan nan nan nan nan
nan nan nan nan nan nan nan nan nan nan nan nan 36 28 34 30 26 30 23 21 18 13 12 13 15 15 12 10 11 10 9 10 11 12 14 17 17 17 18 17 18 20 18 nan nan nan nan nan nan
nan nan nan nan nan nan nan nan nan nan nan nan 32 39 30 33 28 35 30 28 23 17 14 13 12 12 14 14 13 12 12 13 13 13 14 16 17 16 16 16 16 18 16 18 18 17 nan nan nan
nan nan nan nan nan nan nan nan nan nan nan 45 36 29 27 25 24 35 30 29 23 19 15 13 13 14 15 14 14 15 14 15 14 15 17 16 17 16 14 13 14 15 14 nan nan nan 17 nan nan
nan nan nan nan nan nan nan nan nan 45 46 51 35 26 24 23 23 30 33 28 23 19 16 13 16 16 19 21 17 16 16 15 16 16 18 18 17 16 14 14 13 14 14 11 11 12 14 15 17
nan nan nan nan nan nan nan nan nan nan 51 49 47 34 31 22 21 26 nan 24 21 18 16 15 17 15 18 18 17 18 17 21 20 20 20 19 nan nan nan nan 14 16 16 13 13 14 12 15 nan
nan nan nan nan nan nan nan nan nan nan 49 50 44 35 26 28 nan nan nan nan 17 20 19 14 15 15 17 20 21 22 22 22 22 21 22 nan nan nan nan nan nan nan 15 18 18 nan nan nan nan
nan nan nan nan nan nan nan nan nan nan nan 53 39 40 40 25 8 10 20 nan nan 18 14 16 18 20 22 27 23 25 26 26 nan 23 nan nan nan nan nan nan nan nan nan nan nan nan nan nan nan
nan nan nan nan nan nan nan nan nan nan nan nan nan 37 24 41 34 27 nan nan nan nan 12 18 22 21 23 27 28 27 26 nan nan nan nan nan nan 27 25 22 21 22 23 20 22 25 27 28 31
nan nan nan nan nan nan nan nan nan nan nan nan 41 25 34 30 35 34 22 nan nan nan nan nan nan nan 26 28 29 nan nan nan nan nan nan nan nan 31 28 26 24 25 23 24 29 28 27 29 33
nan nan nan nan nan nan nan nan nan nan nan nan 42 29 47 55 48 35 20 18 18 23 31 nan nan nan nan nan nan nan nan nan nan nan 31 32 33 33 31 33 29 27 31 35 34 32 35 35 39
nan nan nan nan nan nan nan nan nan nan nan nan 41 36 43 50 51 46 38 38 39 43 45 44 nan nan nan nan nan nan 35 34 31 31 34 33 34 35 37 35 33 34 34 33 35 37 40 40 43
nan nan nan nan nan nan nan nan nan nan nan nan 51 40 39 42 44 48 44 45 50 52 53 52 48 nan nan nan 38 36 37 38 32 35 37 34 36 38 39 37 38 39 38 36 39 40 43 43 nan
nan nan nan nan nan nan nan nan nan nan nan nan 57 55 47 44 40 41 46 50 51 54 56 55 53 58 54 48 43 48 52 50 44 38 43 49 42 41 36 41 42 40 45 37 41 nan nan nan nan
nan nan nan nan nan nan nan nan nan nan nan nan 58 61 64 60 54 50 51 53 57 56 56 53 56 64 62 65 58 58 58 53 53 52 47 41 46 46 36 42 42 44 43 44 nan nan nan nan nan
nan nan nan nan nan nan nan nan nan nan nan nan 55 58 61 62 60 52 49 52 58 53 50 55 56 62 56 63 61 60 59 62 58 55 47 49 58 34 43 46 45 43 nan nan nan nan nan nan nan
nan nan nan nan nan nan nan nan nan nan 63 nan 59 54 58 55 54 51 49 52 58 51 46 nan nan nan nan 47 nan 38 34 64 53 53 50 58 50 49 51 35 35 nan nan nan nan nan nan nan nan
nan nan nan nan nan nan nan nan nan nan 57 58 56 54 52 56 57 55 56 55 57 61 nan nan nan 45 50 nan nan nan 30 53 57 56 56 49 51 45 32 34 nan nan nan nan nan nan nan nan nan
nan nan nan nan nan nan nan nan nan nan 45 41 38 43 44 49 53 53 50 51 54 60 63 59 nan 54 56 nan nan nan 48 43 57 48 45 55 44 32 33 nan nan nan nan nan nan nan nan nan nan
nan nan nan nan nan nan nan nan nan nan nan 41 33 38 42 41 43 45 50 54 53 61 55 46 47 nan nan nan nan 63 65 73 57 46 36 34 28 nan nan nan nan nan nan nan nan nan nan nan nan
nan nan nan nan nan nan nan nan nan nan nan nan 32 31 34 34 36 39 42 47 47 53 51 nan nan nan 56 nan 51 62 47 40 47 26 30 34 nan nan nan nan nan nan nan nan nan nan nan nan nan
nan nan nan nan nan nan nan nan nan nan nan nan 38 35 39 39 36 36 40 36 38 47 45 nan nan nan 46 nan 48 nan nan nan nan 27 23 nan nan nan nan nan nan nan nan nan nan nan nan nan nan
nan nan nan nan nan nan nan nan nan nan nan nan 39 42 38 40 39 40 38 36 39 42 41 39 nan 41 nan 44 nan nan nan 24 nan 31 nan nan nan nan nan nan nan nan nan nan nan nan nan nan nan
nan nan nan nan nan nan nan nan nan nan nan nan 37 32 34 39 41 39 37 35 34 42 41 37 32 33 30 nan nan 49 52 43 36 nan nan nan nan nan nan nan nan nan nan nan nan nan nan nan nan
nan nan nan nan nan nan nan nan nan nan nan nan nan nan nan 40 42 38 38 39 36 39 38 38 33 nan nan 35 31 34 46 nan nan nan 32 nan nan nan nan nan nan nan nan nan nan nan nan nan nan
nan nan nan nan nan nan nan nan nan 39 35 nan nan nan nan nan 38 34 41 45 50 35 26 32 40 nan 34 30 23 nan nan nan nan 27 nan nan nan nan nan nan nan nan nan nan nan nan nan nan nan
Wind_Direction
nan nan nan nan nan nan nan nan nan nan nan nan nan 214 nan nan 277 nan 173 212 260 250 217 257 289 302 293 297 328 329 317 316 311 303 297 289 288 297 310 320 325 327 331 333 332 335 338 343 339
nan nan nan nan nan nan nan nan nan nan nan nan nan 194 190 193 189 226 225 225 249 247 233 249 302 301 294 305 325 322 318 313 301 289 280 280 287 300 308 316 324 328 328 330 332 340 349 353 349
nan nan nan nan nan nan nan nan nan nan nan nan nan 209 nan 201 197 212 224 239 227 269 253 264 293 294 293 309 327 328 324 320 307 301 283 280 286 293 306 318 322 322 322 327 334 nan 349 nan nan
nan nan nan nan nan nan nan nan nan nan 216 nan nan 201 202 201 209 198 218 236 237 274 266 294 300 299 300 312 325 323 319 317 311 301 294 297 298 303 312 315 315 316 321 329 338 nan nan nan nan
nan nan nan nan nan nan nan nan nan nan nan nan nan 202 202 205 229 236 222 224 237 244 240 265 284 287 294 305 309 309 311 306 295 292 298 298 300 306 311 313 312 318 nan nan nan nan nan nan nan
nan nan nan nan nan nan nan nan nan nan nan nan 216 227 213 239 235 243 237 245 239 260 262 257 287 291 296 293 285 280 277 268 268 275 281 287 297 304 308 308 315 324 332 nan nan nan nan nan nan
nan nan nan nan nan nan nan nan nan nan nan nan 227 219 221 228 240 229 232 237 232 242 263 249 249 274 287 279 272 264 261 262 268 273 279 287 295 299 302 310 318 326 332 338 350 3 nan nan nan
nan nan nan nan nan nan nan nan nan nan nan 227 231 232 233 221 243 228 233 228 236 243 249 259 260 247 246 252 271 268 265 269 274 280 283 287 291 292 293 303 313 318 324 nan nan nan 1 nan nan
nan nan nan nan nan nan nan nan nan 212 220 220 219 226 207 252 234 234 238 242 242 239 247 244 234 238 238 232 243 255 272 273 278 280 279 277 273 284 293 307 309 312 314 320 334 345 348 351 352
nan nan nan nan nan nan nan nan nan nan 216 220 215 203 227 244 228 261 nan 255 254 256 255 248 240 240 236 233 233 233 238 239 246 254 268 270 nan nan nan nan 308 313 315 328 333 341 336 333 nan
nan nan nan nan nan nan nan nan nan nan 217 228 223 203 229 253 nan nan nan nan 267 250 247 265 268 261 244 232 231 229 233 242 247 261 262 nan nan nan nan nan nan nan 315 301 311 nan nan nan nan
nan nan nan nan nan nan nan nan nan nan nan 223 223 229 228 242 207 271 244 nan nan 252 257 254 251 252 248 243 242 238 238 241 nan 250 nan nan nan nan nan nan nan nan nan nan nan nan nan nan nan
nan nan nan nan nan nan nan nan nan nan nan nan nan 209 235 227 239 241 nan nan nan nan 256 262 260 260 253 254 246 243 242 nan nan nan nan nan nan 268 279 284 288 291 296 296 297 300 308 311 316
nan nan nan nan nan nan nan nan nan nan nan nan 231 220 226 230 235 242 246 nan nan nan nan nan nan nan 257 256 256 nan nan nan nan nan nan nan nan 270 279 282 285 286 294 294 294 305 306 309 311
nan nan nan nan nan nan nan nan nan nan nan nan 230 225 224 229 223 224 235 231 228 209 231 nan nan nan nan nan nan nan nan nan nan nan 261 269 269 274 279 278 279 283 282 284 291 296 300 305 306
nan nan nan nan nan nan nan nan nan nan nan nan 219 228 235 229 231 228 226 234 235 240 241 240 nan nan nan nan nan nan 255 252 252 252 254 260 268 275 273 273 274 273 280 287 292 296 298 298 304
nan nan nan nan nan nan nan nan nan nan nan nan 222 229 234 237 226 229 230 238 244 255 255 251 233 nan nan nan 244 248 240 238 238 243 250 259 263 265 268 276 276 277 280 283 287 290 296 302 nan
nan nan nan nan nan nan nan nan nan nan nan nan 227 230 236 237 233 235 244 255 255 255 260 251 232 228 228 227 232 240 244 238 233 238 242 250 255 265 263 270 273 274 280 283 285 nan nan nan nan
nan nan nan nan nan nan nan nan nan nan nan nan 224 231 234 239 243 241 244 250 252 259 252 245 237 235 234 232 235 235 242 242 239 237 241 246 253 250 262 266 267 274 277 287 nan nan nan nan nan
nan nan nan nan nan nan nan nan nan nan nan nan 226 229 241 240 242 241 247 250 257 262 250 260 241 242 233 239 237 233 236 242 246 252 236 248 243 250 256 257 264 278 nan nan nan nan nan nan nan
nan nan nan nan nan nan nan nan nan nan 213 nan 223 230 238 250 253 250 249 249 249 256 270 nan nan nan nan 247 nan 206 230 232 237 238 237 238 250 249 252 269 277 nan nan nan nan nan nan nan nan
nan nan nan nan nan nan nan nan nan nan 215 214 225 232 237 249 248 251 252 257 264 263 nan nan nan 296 288 nan nan nan 254 232 234 228 239 238 244 249 260 264 nan nan nan nan nan nan nan nan nan
nan nan nan nan nan nan nan nan nan nan 214 223 229 237 239 245 253 256 260 260 261 260 266 269 nan 274 278 nan nan nan 297 267 246 227 241 250 245 244 256 nan nan nan nan nan nan nan nan nan nan
nan nan nan nan nan nan nan nan nan nan nan 224 231 240 246 249 257 258 257 258 262 262 269 271 270 nan nan nan nan 306 297 283 241 224 236 243 250 nan nan nan nan nan nan nan nan nan nan nan nan
nan nan nan nan nan nan nan nan nan nan nan nan 238 236 245 249 254 263 270 274 279 284 283 nan nan nan 287 nan 295 297 275 246 233 229 227 236 nan nan nan nan nan nan nan nan nan nan nan nan nan
nan nan nan nan nan nan nan nan nan nan nan nan 229 240 247 253 255 264 272 287 285 281 282 nan nan nan 295 nan 274 nan nan nan nan 230 230 nan nan nan nan nan nan nan nan nan nan nan nan nan nan
nan nan nan nan nan nan nan nan nan nan nan nan 232 237 242 255 262 266 276 282 271 266 271 272 nan 289 nan 277 nan nan nan 250 nan 253 nan nan nan nan nan nan nan nan nan nan nan nan nan nan nan
nan nan nan nan nan nan nan nan nan nan nan nan 237 239 247 254 263 269 273 271 268 268 268 266 282 285 288 nan nan 282 282 274 251 nan nan nan nan nan nan nan nan nan nan nan nan nan nan nan nan
nan nan nan nan nan nan nan nan nan nan nan nan nan nan nan 265 270 272 269 266 258 267 273 268 277 nan nan 291 287 280 272 nan nan nan 283 nan nan nan nan nan nan nan nan nan nan nan nan nan nan
nan nan nan nan nan nan nan nan nan 213 212 nan nan nan nan nan 262 262 258 264 265 278 275 281 278 nan 284 273 271 nan nan nan nan 283 nan nan nan nan nan nan nan nan nan nan nan nan nan nan nan